User: anonymous   Login
Location: Christchurch
(43.5330°S, 172.6330°E)
Time: 23:54:16
(UTC+13:00)
Language:

ADEOS Rocket - Orbit

View from above orbital plane
View from above orbital plane
View from above satellite
View from above satellite

Ground track
Ground track

The orbit data is extracted from the following two-line orbital elements,

1 24279U 96046C   19317.68412247 -.00000030 +00000-0 +83321-5 0  9990
2 24279 098.6973 162.3589 0299518 206.7124 198.2465 13.47132445142385
Epoch (UTC): 13 November 2019 16:25:08
Eccentricity: 0.0299518
inclination: 98.6973°
perigee height: 859 km
apogee height: 1306 km
right ascension of ascending node: 162.3589°
argument of perigee: 206.7124°
revolutions per day: 13.47132445
mean anomaly at epoch: 198.2465°
orbit number at epoch: 14238

The dashed part of the orbit path shows where the satellite is in the earth's shadow,  

DLR